Hourly Data Report for July 07, 2021

CAPE RACE (AUT)
NEWFOUNDLAND
Current Station Operator: ECCC - MSC

46°39'36.000" N
53°04'35.000" W
26.50 m
8401000
71800
WRA

Download Data

Hourly Data (July 2021)
Hourly Data Report for July 7, 2021
TIME
LST
Temp Definition
°C
Dew Point Definition
°C
Rel Hum Definition
%
Precip. Amount Definition
mm

Wind Dir Definition
10's deg

Wind Spd Definition
km/h
Visibility Definition
km
Stn Press Definition
kPa
Hmdx Definition


Wind Chill Definition


Weather Definition


00:30 10.7 LegendMM LegendMM 0.0 23 24   100.86     LegendNANA
01:30 10.7 LegendMM LegendMM 0.0 23 29   100.85     LegendNANA
02:30 11.0 LegendMM LegendMM 0.0 23 27   100.80     LegendNANA
03:30 11.1 LegendMM LegendMM 0.0 22 26   100.79     LegendNANA
04:30 11.5 LegendMM LegendMM 0.5 22 33   100.75     LegendNANA
05:30 11.9 LegendMM LegendMM 0.4 22 30   100.74     LegendNANA
06:30 11.6 LegendMM LegendMM 0.3 22 33   100.72     LegendNANA
07:30 11.6 LegendMM LegendMM 0.0 22 36   100.71     LegendNANA
08:30 12.0 LegendMM LegendMM 0.4 22 30   100.70     LegendNANA
09:30 12.2 LegendMM LegendMM 0.0 22 31   100.67     LegendNANA
10:30 12.1 LegendMM LegendMM 0.0 22 32   100.64     LegendNANA
11:30 12.6 LegendMM LegendMM 0.0 22 38   100.61     LegendNANA
12:30 12.3 LegendMM LegendMM 0.0 21 37   100.54     LegendNANA
13:30 12.5 LegendMM LegendMM 0.0 22 40   100.47     LegendNANA
14:30 12.4 LegendMM LegendMM 0.2 22 34   100.49     LegendNANA
15:30 12.6 LegendMM LegendMM 0.0 22 29   100.51     LegendNANA
16:30 12.5 LegendMM LegendMM 0.0 23 32   100.52     LegendNANA
17:30 12.3 LegendMM LegendMM 0.0 23 29   100.52     LegendNANA
18:30 11.4 LegendMM LegendMM 0.2 22 24   100.54     LegendNANA
19:30 12.2 LegendMM LegendMM 0.0 23 32   100.53     LegendNANA
20:30 12.2 LegendMM LegendMM 0.0 23 33   100.56     LegendNANA
21:30 12.6 LegendMM LegendMM 0.0 24 33   100.57     LegendNANA
22:30 12.1 LegendMM LegendMM 0.0 23 38   100.57     LegendNANA
23:30 11.5 LegendMM LegendMM 0.3 23 30   100.58     LegendNANA

Notes on Data Quality.

Legend

  • E = Estimated
  • M = Missing
  • NA = Not Available*
  • [empty] = Indicates an unobserved value
Date modified: